Index of /ubuntu/dists

[ICO]NameLast modifiedSizeDescription

[PARENTDIR]Parent Directory  -  
[DIR]xenial-backports/2022-08-17 23:54 -  
[DIR]xenial-updates/2022-08-17 23:54 -  
[DIR]xenial-security/2022-08-17 23:53 -  
[DIR]bionic-backports/2022-08-17 23:52 -  
[DIR]bionic-proposed/2022-08-17 23:52 -  
[DIR]bionic-updates/2022-08-17 23:52 -  
[DIR]bionic-security/2022-08-17 23:50 -  
[DIR]focal-backports/2022-08-17 23:49 -  
[DIR]focal-proposed/2022-08-17 23:49 -  
[DIR]focal-updates/2022-08-17 23:49 -  
[DIR]focal-security/2022-08-17 23:48 -  
[DIR]jammy-backports/2022-08-17 23:47 -  
[DIR]jammy-proposed/2022-08-17 23:47 -  
[DIR]jammy-updates/2022-08-17 23:46 -  
[DIR]jammy-security/2022-08-17 23:46 -  
[DIR]kinetic-proposed/2022-08-17 23:46 -  
[DIR]devel-proposed/2022-08-17 23:46 -  
[DIR]kinetic/2022-08-17 23:46 -  
[DIR]devel/2022-08-17 23:46 -  
[DIR]xenial-proposed/2022-08-12 13:32 -  
[DIR]kinetic-updates/2022-05-03 00:06 -  
[DIR]devel-updates/2022-05-03 00:06 -  
[DIR]kinetic-security/2022-05-03 00:06 -  
[DIR]devel-security/2022-05-03 00:06 -  
[DIR]kinetic-backports/2022-05-02 23:10 -  
[DIR]devel-backports/2022-05-02 23:10 -  
[DIR]jammy/2022-04-21 19:16 -  
[DIR]trusty-proposed/2020-06-06 08:57 -  
[DIR]trusty-updates/2020-05-29 10:08 -  
[DIR]trusty-security/2020-05-29 10:06 -  
[DIR]focal/2020-04-23 19:34 -  
[DIR]bionic/2018-04-27 01:38 -  
[DIR]trusty-backports/2017-12-15 10:49 -  
[DIR]xenial/2016-04-21 09:43 -  
[DIR]trusty/2015-10-07 13:44 -  

Apache Server at mirror.niif.hu Port 443